ONEWEB-0044 (45150 NORAD) Tracking and Keplerian Element Data

This shows tracking and keplerian element data for the satellite.

Feedback or suggestion? Click here.




ElementValue
Catalog45150
NameONEWEB-0044
Epoch Orbit3861
Epoch Day293.91673611
Epoch Year2020
RAAN87.2088
Inclination87.9294
Eccentricity0.0018972
Argument of Perigee123.7601
Mean Anonmoly316.4365
Mean Motion13.40029603
Decay Rate1.4E-07
L11 45150U 20008V 20293.91673611 .00000014 00000-0 00000-0 0 9990
L22 45150 87.9294 87.2088 0018972 123.7601 316.4365 13.40029603 38610

Live tracking and technical data element details for ONEWEB-0044 (NORAD 45150). ONEWEB-0044 can be tracked NOW for your location showing map with azimuth and elevation plus other details from your city location.

Track the satellite on the map from your city or location and see movement details for azimuth, elevation, latitude, longitude, range, height, and movement on the map or in text.







IsCatalogInMostPopularTable: catalog: 45150, numindb: 61
Update: records affected: 1



GetName: 45150 ONEWEB-0044

Hit Count: updated at: Tue, 20 Oct 2020 12:29:37 GMT